Time,TemperatureF,DewpointF,PressureIn,WindDirection,WindDirectionDegrees,WindSpeedMPH,WindSpeedGustMPH,Humidity,HourlyPrecipIn,Conditions,Clouds,dailyrainin,SolarRadiationWatts/m^2,SoftwareType,DateUTC
2013-05-12 00:03:00,-999.0,-99.9,-100.00,NW,312,6.0,10.0,90,0.00,,,0.00,0.000000,,2013-05-12 04:03:00,
2013-05-12 00:33:00,68.0,65.0,-100.00,NW,319,6.0,12.0,91,0.00,,,0.00,0.000000,,2013-05-12 04:33:00,
2013-05-12 00:43:00,68.0,65.0,-100.00,NW,319,6.0,12.0,91,0.00,,,0.00,0.000000,,2013-05-12 04:43:00,
2013-05-12 00:52:00,68.0,65.0,-100.00,NW,319,6.0,12.0,91,0.00,,,0.00,0.000000,,2013-05-12 04:52:00,
2013-05-12 01:02:00,68.0,65.0,-100.00,NW,319,6.0,12.0,91,0.00,,,0.00,0.000000,,2013-05-12 05:02:00,
2013-05-12 01:32:00,68.0,65.0,-100.00,North,1,4.0,11.0,91,0.00,,,0.00,0.000000,,2013-05-12 05:32:00,
2013-05-12 01:42:00,68.0,65.0,-100.00,North,1,4.0,11.0,91,0.00,,,0.00,0.000000,,2013-05-12 05:42:00,
2013-05-12 01:52:00,68.0,65.0,-100.00,North,1,4.0,11.0,91,0.00,,,0.00,0.000000,,2013-05-12 05:52:00,
2013-05-12 02:02:00,68.0,65.0,-100.00,North,1,4.0,11.0,91,0.00,,,0.00,0.000000,,2013-05-12 06:02:00,
2013-05-12 02:32:00,67.0,65.0,-100.00,North,359,4.0,9.0,92,0.00,,,0.00,0.000000,,2013-05-12 06:32:00,
2013-05-12 02:42:00,67.0,65.0,-100.00,North,359,4.0,9.0,92,0.00,,,0.00,0.000000,,2013-05-12 06:42:00,
2013-05-12 02:52:00,67.0,65.0,-100.00,North,359,4.0,9.0,92,0.00,,,0.00,0.000000,,2013-05-12 06:52:00,
2013-05-12 03:02:00,67.0,65.0,-100.00,North,359,4.0,9.0,92,0.00,,,0.00,0.000000,,2013-05-12 07:02:00,
2013-05-12 03:32:00,65.0,63.0,-100.00,NNW,331,3.0,7.0,92,0.00,,,0.00,0.000000,,2013-05-12 07:32:00,
2013-05-12 03:42:00,65.0,63.0,-100.00,NNW,331,3.0,7.0,92,0.00,,,0.00,0.000000,,2013-05-12 07:42:00,
2013-05-12 03:52:00,65.0,63.0,-100.00,NNW,331,3.0,7.0,92,0.00,,,0.00,0.000000,,2013-05-12 07:52:00,
2013-05-12 04:02:00,65.0,63.0,-100.00,NNW,331,3.0,7.0,92,0.00,,,0.00,0.000000,,2013-05-12 08:02:00,
2013-05-12 04:32:00,64.0,62.0,-100.00,NW,306,3.0,5.0,93,0.00,,,0.00,0.000000,,2013-05-12 08:32:00,
2013-05-12 04:42:00,64.0,62.0,-100.00,NW,306,3.0,5.0,93,0.00,,,0.00,0.000000,,2013-05-12 08:42:00,
2013-05-12 04:53:00,64.0,62.0,-100.00,NW,306,3.0,5.0,93,0.00,,,0.00,0.000000,,2013-05-12 08:53:00,
2013-05-12 05:01:00,64.0,62.0,-100.00,NW,306,3.0,5.0,93,0.00,,,0.00,0.000000,,2013-05-12 09:01:00,
2013-05-12 05:33:00,64.0,63.0,-100.00,NE,39,2.0,5.0,95,0.00,,,0.00,0.000000,,2013-05-12 09:33:00,
2013-05-12 05:43:00,64.0,63.0,-100.00,NE,39,2.0,5.0,95,0.00,,,0.00,0.000000,,2013-05-12 09:43:00,
2013-05-12 05:53:00,64.0,63.0,-100.00,NE,39,2.0,5.0,95,0.00,,,0.00,0.000000,,2013-05-12 09:53:00,
2013-05-12 06:03:00,64.0,63.0,-100.00,NE,39,2.0,5.0,95,0.00,,,0.00,0.000000,,2013-05-12 10:03:00,
2013-05-12 06:33:00,62.0,61.0,-100.00,NNE,26,3.0,8.0,97,0.00,,,0.00,0.000000,,2013-05-12 10:33:00,
2013-05-12 06:42:00,62.0,61.0,-100.00,NNE,26,3.0,8.0,97,0.00,,,0.00,0.000000,,2013-05-12 10:42:00,
2013-05-12 06:52:00,62.0,61.0,-100.00,NNE,26,3.0,8.0,97,0.00,,,0.00,0.000000,,2013-05-12 10:52:00,
2013-05-12 07:02:00,62.0,61.0,-100.00,NNE,26,3.0,8.0,97,0.00,,,0.00,0.000000,,2013-05-12 11:02:00,
2013-05-12 07:32:00,62.0,61.0,-100.00,NE,38,3.0,7.0,98,0.00,,,0.00,9.000000,,2013-05-12 11:32:00,
2013-05-12 07:42:00,62.0,61.0,-100.00,NE,38,3.0,7.0,98,0.00,,,0.00,9.000000,,2013-05-12 11:42:00,
2013-05-12 07:52:00,62.0,61.0,-100.00,NE,38,3.0,7.0,98,0.00,,,0.00,9.000000,,2013-05-12 11:52:00,
2013-05-12 08:02:00,62.0,61.0,-100.00,NE,38,3.0,7.0,98,0.00,,,0.00,9.000000,,2013-05-12 12:02:00,
2013-05-12 09:32:00,68.0,60.0,-100.00,East,84,6.0,12.0,75,-99.99,,,0.00,80.000000,,2013-05-12 13:32:00,
2013-05-12 09:42:00,68.0,60.0,-100.00,East,84,6.0,12.0,75,-99.99,,,0.00,80.000000,,2013-05-12 13:42:00,
2013-05-12 09:52:00,68.0,60.0,-100.00,East,84,6.0,12.0,75,-99.99,,,0.00,80.000000,,2013-05-12 13:52:00,
2013-05-12 10:01:00,68.0,60.0,-100.00,East,84,6.0,12.0,75,-99.99,,,0.00,80.000000,,2013-05-12 14:01:00,
2013-05-12 10:32:00,75.0,60.0,-100.00,ESE,104,3.0,11.0,59,0.00,,,0.00,436.000000,,2013-05-12 14:32:00,
2013-05-12 10:42:00,75.0,60.0,-100.00,ESE,104,3.0,11.0,59,0.00,,,0.00,436.000000,,2013-05-12 14:42:00,
2013-05-12 10:52:00,75.0,60.0,-100.00,ESE,104,3.0,11.0,59,0.00,,,0.00,436.000000,,2013-05-12 14:52:00,
2013-05-12 11:01:00,75.0,60.0,-100.00,ESE,104,3.0,11.0,59,0.00,,,0.00,436.000000,,2013-05-12 15:01:00,
2013-05-12 11:34:00,79.0,57.0,-100.00,ENE,74,5.0,10.0,47,0.00,,,-99.99,813.000000,,2013-05-12 15:34:00,
2013-05-12 11:42:00,79.0,57.0,-100.00,ENE,74,5.0,10.0,47,0.00,,,-99.99,813.000000,,2013-05-12 15:42:00,
2013-05-12 11:53:00,79.0,57.0,-100.00,ENE,74,5.0,10.0,47,0.00,,,-99.99,813.000000,,2013-05-12 15:53:00,
2013-05-12 12:02:00,79.0,57.0,-100.00,ENE,74,5.0,10.0,47,0.00,,,-99.99,813.000000,,2013-05-12 16:02:00,
2013-05-12 12:33:00,78.0,55.0,-100.00,East,82,5.0,12.0,45,0.00,,,0.00,979.000000,,2013-05-12 16:33:00,
2013-05-12 12:42:00,78.0,55.0,-100.00,East,82,5.0,12.0,45,0.00,,,0.00,979.000000,,2013-05-12 16:42:00,
2013-05-12 12:53:00,78.0,55.0,-100.00,East,82,5.0,12.0,45,0.00,,,0.00,979.000000,,2013-05-12 16:53:00,
2013-05-12 13:02:00,78.0,55.0,-100.00,East,82,5.0,12.0,45,0.00,,,0.00,979.000000,,2013-05-12 17:02:00,
2013-05-12 13:32:00,79.0,55.0,-100.00,NE,35,7.0,15.0,43,0.00,,,-99.99,1047.000000,,2013-05-12 17:32:00,
2013-05-12 13:42:00,79.0,55.0,-100.00,NE,35,7.0,15.0,43,0.00,,,-99.99,1047.000000,,2013-05-12 17:42:00,
2013-05-12 13:53:00,79.0,55.0,-100.00,NE,35,7.0,15.0,43,0.00,,,-99.99,1047.000000,,2013-05-12 17:53:00,
2013-05-12 14:01:00,79.0,55.0,-100.00,NE,35,7.0,15.0,43,0.00,,,-99.99,1047.000000,,2013-05-12 18:01:00,
2013-05-12 14:32:00,80.0,50.0,-100.00,ENE,57,6.0,16.0,35,0.00,,,0.00,1085.000000,,2013-05-12 18:32:00,
2013-05-12 14:42:00,80.0,50.0,-100.00,ENE,57,6.0,16.0,35,0.00,,,0.00,1085.000000,,2013-05-12 18:42:00,
2013-05-12 14:52:00,80.0,50.0,-100.00,ENE,57,6.0,16.0,35,0.00,,,0.00,1085.000000,,2013-05-12 18:52:00,
2013-05-12 15:01:00,80.0,50.0,-100.00,ENE,57,6.0,16.0,35,0.00,,,0.00,1085.000000,,2013-05-12 19:01:00,
2013-05-12 15:32:00,82.0,53.0,-100.00,NNE,16,6.0,15.0,37,0.00,,,0.00,1038.000000,,2013-05-12 19:32:00,
2013-05-12 15:42:00,82.0,53.0,-100.00,NNE,16,6.0,15.0,37,0.00,,,0.00,1038.000000,,2013-05-12 19:42:00,
2013-05-12 15:52:00,82.0,53.0,-100.00,NNE,16,6.0,15.0,37,0.00,,,0.00,1038.000000,,2013-05-12 19:52:00,
2013-05-12 16:02:00,82.0,53.0,-100.00,NNE,16,6.0,15.0,37,0.00,,,0.00,1038.000000,,2013-05-12 20:02:00,
2013-05-12 16:32:00,81.0,53.0,-100.00,NE,37,10.0,20.0,38,0.00,,,0.00,890.000000,,2013-05-12 20:32:00,
2013-05-12 16:42:00,81.0,53.0,-100.00,NE,37,10.0,20.0,38,0.00,,,0.00,890.000000,,2013-05-12 20:42:00,
2013-05-12 16:52:00,81.0,53.0,-100.00,NE,37,10.0,20.0,38,0.00,,,0.00,890.000000,,2013-05-12 20:52:00,
2013-05-12 17:01:00,81.0,53.0,-100.00,NE,37,10.0,20.0,38,0.00,,,0.00,890.000000,,2013-05-12 21:01:00,
2013-05-12 17:33:00,79.0,45.0,-100.00,NNE,32,9.0,20.0,30,0.00,,,0.00,610.000000,,2013-05-12 21:33:00,
2013-05-12 17:42:00,79.0,45.0,-100.00,NNE,32,9.0,20.0,30,0.00,,,0.00,610.000000,,2013-05-12 21:42:00,
2013-05-12 17:53:00,79.0,45.0,-100.00,NNE,32,9.0,20.0,30,0.00,,,0.00,610.000000,,2013-05-12 21:53:00,
2013-05-12 18:02:00,79.0,45.0,-100.00,NNE,32,9.0,20.0,30,0.00,,,0.00,610.000000,,2013-05-12 22:02:00,
2013-05-12 18:33:00,75.0,46.0,-100.00,NNE,15,9.0,18.0,36,0.00,,,0.00,66.000000,,2013-05-12 22:33:00,
2013-05-12 18:42:00,75.0,46.0,-100.00,NNE,15,9.0,18.0,36,0.00,,,0.00,66.000000,,2013-05-12 22:42:00,
2013-05-12 18:52:00,75.0,46.0,-100.00,NNE,15,9.0,18.0,36,0.00,,,0.00,66.000000,,2013-05-12 22:52:00,
2013-05-12 19:02:00,75.0,46.0,-100.00,NNE,15,9.0,18.0,36,0.00,,,0.00,66.000000,,2013-05-12 23:02:00,
2013-05-12 19:32:00,72.0,48.0,-100.00,NNE,33,6.0,16.0,43,0.00,,,0.00,43.000000,,2013-05-12 23:32:00,
2013-05-12 19:42:00,72.0,48.0,-100.00,NNE,33,6.0,16.0,43,0.00,,,0.00,43.000000,,2013-05-12 23:42:00,
2013-05-12 19:52:00,72.0,48.0,-100.00,NNE,33,6.0,16.0,43,0.00,,,0.00,43.000000,,2013-05-12 23:52:00,
2013-05-12 20:01:00,72.0,48.0,-100.00,NNE,33,6.0,16.0,43,0.00,,,0.00,43.000000,,2013-05-13 00:01:00,
2013-05-12 20:32:00,67.0,46.0,-100.00,NNE,30,3.0,13.0,46,0.00,,,0.00,19.000000,,2013-05-13 00:32:00,
2013-05-12 20:42:00,67.0,46.0,-100.00,NNE,30,3.0,13.0,46,0.00,,,0.00,19.000000,,2013-05-13 00:42:00,
2013-05-12 20:52:00,67.0,46.0,-100.00,NNE,30,3.0,13.0,46,0.00,,,0.00,19.000000,,2013-05-13 00:52:00,
2013-05-12 21:01:00,67.0,46.0,-100.00,NNE,30,3.0,13.0,46,0.00,,,0.00,19.000000,,2013-05-13 01:01:00,
2013-05-12 21:32:00,62.0,49.0,-100.00,NNW,344,3.0,7.0,62,0.00,,,0.00,1.000000,,2013-05-13 01:32:00,
2013-05-12 21:42:00,62.0,49.0,-100.00,NNW,344,3.0,7.0,62,0.00,,,0.00,1.000000,,2013-05-13 01:42:00,
2013-05-12 21:52:00,62.0,49.0,-100.00,NNW,344,3.0,7.0,62,0.00,,,0.00,1.000000,,2013-05-13 01:52:00,
2013-05-12 22:02:00,62.0,49.0,-100.00,NNW,344,3.0,7.0,62,0.00,,,0.00,1.000000,,2013-05-13 02:02:00,
2013-05-12 22:32:00,59.0,51.0,-100.00,North,10,4.0,8.0,74,0.00,,,0.00,0.000000,,2013-05-13 02:32:00,
2013-05-12 22:42:00,59.0,51.0,-100.00,North,10,4.0,8.0,74,0.00,,,0.00,0.000000,,2013-05-13 02:42:00,
2013-05-12 22:52:00,59.0,51.0,-100.00,North,10,4.0,8.0,74,0.00,,,0.00,0.000000,,2013-05-13 02:52:00,
2013-05-12 23:02:00,59.0,51.0,-100.00,North,10,4.0,8.0,74,0.00,,,0.00,0.000000,,2013-05-13 03:02:00,
2013-05-12 23:33:00,57.0,51.0,-100.00,North,354,4.0,7.0,79,0.00,,,0.00,0.000000,,2013-05-13 03:33:00,
2013-05-12 23:42:00,57.0,51.0,-100.00,North,354,4.0,7.0,79,0.00,,,0.00,0.000000,,2013-05-13 03:42:00,
2013-05-12 23:53:00,57.0,51.0,-100.00,North,354,4.0,7.0,79,0.00,,,0.00,0.000000,,2013-05-13 03:53:00,